Simultaneous Nadir Overpasses (SNOs) Predictions

Prediction of SNOs between GOES-15 and TERRA Satellite Orbit:

Table of predicted SNOs for the next 14.0 days since TLE Epoch: 2/2/2015
Index Date Time (GOES-15) GOES-15 Lat,Lon TERRA Lat,Lon Distance(km) Time Diff (sec)
1 02/03/2015 07:28:23 -0.05,-135.06 -0.03,-134.88 20.46 80
2 02/05/2015 07:16:11 -0.06,-135.13 0.65,-131.93 364.39 80
3 02/05/2015 19:37:25 0.06,-135.17 0.44,-137.09 216.81 80
4 02/07/2015 19:27:52 0.06,-135.24 -0.20,-134.13 126.88 80
5 02/08/2015 07:49:15 -0.06,-135.23 -0.94,-139.31 464.25 80
6 02/09/2015 19:15:38 0.06,-135.29 -0.81,-131.16 469.97 80
7 02/10/2015 07:37:02 -0.06,-135.28 -0.27,-136.35 121.38 80
8 02/12/2015 07:22:08 -0.06,-135.33 0.36,-133.39 220.81 80
9 02/12/2015 19:43:23 0.06,-135.36 0.73,-138.54 361.60 80
10 02/14/2015 19:31:09 0.05,-135.40 0.08,-135.58 20.28 80




NCC Satellite Simultaneous Nadir Overpasses (SNOs) Prediction Service
